Tracking 35274 objects as of 10-Sep-2026
HD Live streaming from Space Station
objects crossing your sky now

DMSP 5D-2 F13 DEB

Track DMSP 5D-2 F13 DEB now!
10-day predictions


NORAD ID: 40610
Int'l Code: 1995-015FH
Launch date: March 24, 1995
Source: United States (US)
Launch site: AIR FORCE WESTERN TEST RANGE (AFWTR)

Note: This is SATELLITE DEBRIS
Your satellite tracking list
Your tracking list is empty




NASA's NSSDC Master Catalog

Two Line Element Set (TLE):
1 40610U 95015FH  26251.37905278  .00003554  00000-0  10868-2 0  9990
2 40610  98.6880 293.6763 0026029 149.4650 210.8061 14.42250442591502
Source of the keplerian elements: AFSPC